DLH575 EDDM-FACT

Flight info

Callsign DLH575
Flight time N/A
Altitude 35000
Route TURBU6E/08R TURBU Y107 TOBSO DCT BAKOR DCT MOVOR DCT PIDAD DCT TALEP DCT VAREK DCT ERPIN DCT ETOIL DCT CIRTA UA605 CSO UM998 BOD/N0489F370 UR978 AS UA604 MF/N0489F390 UA604 DLA UG861 MESIN UY339 LIKAD/N0492F380 UY242 UVUNI/N0484F400 UY242 VMO/N0489F390 UN190 APGEK/N0485F410 UN190 XALVI/N0486F400 UN188 DUSLA UQ62 ASPIK ASPIK1C
Aircraft A359/H-SDE2E3GHIJ3J4J5LM1ORWXY/LB1D1

Departure

Time 2026-05-01 11:35
Airport Munich Airport (EDDM)

Arrival

Time N/A
Airport Cape Town International Airport (FACT)
Time Latitude Longitude Altitude Speed Heading
2026-05-01 10:52 48.35691 11.79284 1478 ft 0 kts 263°
2026-05-01 11:00 48.35688 11.79254 1483 ft 0 kts 263°
2026-05-01 11:17 48.35689 11.79262 1491 ft 3 kts 261°
2026-05-01 11:18 48.35691 11.79289 1476 ft 3 kts 261°
2026-05-01 11:18 48.35694 11.79316 1476 ft 3 kts 261°
2026-05-01 11:18 48.35698 11.79345 1476 ft 3 kts 238°
2026-05-01 11:18 48.35707 11.79367 1476 ft 3 kts 236°
2026-05-01 11:19 48.35719 11.79389 1476 ft 3 kts 214°
2026-05-01 11:19 48.35735 11.79403 1476 ft 3 kts 187°
2026-05-01 11:19 48.35743 11.79405 1476 ft 0 kts 171°
2026-05-01 11:23 48.35737 11.79406 1476 ft 4 kts 171°
2026-05-01 11:23 48.35679 11.79418 1478 ft 13 kts 173°
2026-05-01 11:23 48.35576 11.79434 1483 ft 15 kts 173°
2026-05-01 11:24 48.35474 11.79452 1490 ft 12 kts 174°
2026-05-01 11:24 48.35391 11.79465 1479 ft 12 kts 174°
2026-05-01 11:24 48.35257 11.79487 1487 ft 10 kts 174°
2026-05-01 11:25 48.35188 11.79499 1484 ft 10 kts 174°
2026-05-01 11:25 48.35051 11.79524 1484 ft 16 kts 174°
2026-05-01 11:25 48.34919 11.79550 1478 ft 9 kts 173°
2026-05-01 11:26 48.34883 11.79556 1485 ft 3 kts 173°
2026-05-01 11:26 48.34849 11.79562 1487 ft 13 kts 173°
2026-05-01 11:26 48.34787 11.79500 1482 ft 12 kts 257°
2026-05-01 11:27 48.34774 11.79351 1483 ft 17 kts 263°
2026-05-01 11:27 48.34758 11.79142 1486 ft 24 kts 263°
2026-05-01 11:27 48.34737 11.78853 1477 ft 29 kts 264°
2026-05-01 11:27 48.34714 11.78552 1479 ft 29 kts 263°
2026-05-01 11:28 48.34689 11.78254 1488 ft 29 kts 263°
2026-05-01 11:28 48.34666 11.77957 1486 ft 28 kts 263°
2026-05-01 11:28 48.34643 11.77662 1484 ft 28 kts 263°
2026-05-01 11:29 48.34599 11.77081 1486 ft 28 kts 263°
2026-05-01 11:29 48.34577 11.76796 1481 ft 27 kts 263°
2026-05-01 11:29 48.34534 11.76232 1484 ft 27 kts 263°
2026-05-01 11:30 48.34513 11.75950 1482 ft 27 kts 263°
2026-05-01 11:30 48.34492 11.75669 1482 ft 27 kts 263°
2026-05-01 11:30 48.34471 11.75389 1491 ft 26 kts 263°
2026-05-01 11:30 48.34451 11.75155 1488 ft 15 kts 261°
2026-05-01 11:31 48.34380 11.75077 1479 ft 14 kts 186°
2026-05-01 11:31 48.34295 11.75081 1479 ft 6 kts 174°
2026-05-01 11:31 48.34254 11.75091 1478 ft 6 kts 171°
2026-05-01 11:31 48.34221 11.75098 1490 ft 0 kts 172°
2026-05-01 11:32 48.34217 11.75099 1484 ft 3 kts 171°
2026-05-01 11:33 48.34165 11.75112 1479 ft 12 kts 170°
2026-05-01 11:33 48.34085 11.75152 1478 ft 10 kts 140°
2026-05-01 11:33 48.34075 11.75202 1480 ft 0 kts 84°
2026-05-01 11:34 48.34094 11.75436 1488 ft 53 kts 84°
2026-05-01 11:34 48.34164 11.76298 1479 ft 111 kts 82°
2026-05-01 11:35 48.34268 11.77721 1476 ft 161 kts 83°
2026-05-01 11:35 48.34405 11.79473 2013 ft 167 kts 82°
2026-05-01 11:35 48.34536 11.81140 2830 ft 163 kts 83°
2026-05-01 11:35 48.34660 11.82875 3174 ft 174 kts 83°
2026-05-01 11:36 48.34798 11.84764 3420 ft 190 kts 83°
2026-05-01 11:36 48.34960 11.86851 3584 ft 211 kts 83°
2026-05-01 11:36 48.35137 11.89104 3994 ft 221 kts 85°
2026-05-01 11:36 48.35299 11.91416 4564 ft 224 kts 85°
2026-05-01 11:37 48.35306 11.93778 5055 ft 228 kts 100°
2026-05-01 11:37 48.34780 11.96013 5560 ft 230 kts 121°
2026-05-01 11:37 48.33713 11.97811 6119 ft 233 kts 137°
2026-05-01 11:37 48.32431 11.99340 6628 ft 238 kts 140°
2026-05-01 11:38 48.31101 12.00866 7075 ft 241 kts 140°
2026-05-01 11:38 48.29659 12.02183 7632 ft 246 kts 154°
2026-05-01 11:38 48.27963 12.02762 8029 ft 260 kts 173°
2026-05-01 11:38 48.26095 12.02741 8260 ft 276 kts 179°
2026-05-01 11:39 48.24153 12.02581 8688 ft 282 kts 180°
2026-05-01 11:39 48.22174 12.02421 9227 ft 286 kts 178°
2026-05-01 11:39 48.20174 12.02293 9754 ft 289 kts 179°
2026-05-01 11:39 48.18160 12.02164 10256 ft 292 kts 178°
2026-05-01 11:40 48.16114 12.02038 10721 ft 295 kts 179°
2026-05-01 11:40 48.14043 12.01912 11200 ft 299 kts 179°
2026-05-01 11:40 48.11978 12.01791 11667 ft 303 kts 178°
2026-05-01 11:40 48.09851 12.01666 12081 ft 308 kts 179°
2026-05-01 11:41 48.07694 12.01504 12556 ft 313 kts 182°
2026-05-01 11:41 48.05534 12.00881 12932 ft 323 kts 192°
2026-05-01 11:41 48.03320 11.99970 13125 ft 336 kts 193°
2026-05-01 11:41 48.01032 11.98989 13341 ft 348 kts 193°
2026-05-01 11:42 47.98661 11.97975 13531 ft 360 kts 193°
2026-05-01 11:42 47.96213 11.96937 13735 ft 372 kts 193°
2026-05-01 11:42 47.93683 11.95868 13919 ft 383 kts 193°
2026-05-01 11:42 47.91057 11.94981 14095 ft 391 kts 186°
2026-05-01 11:43 47.88316 11.94587 14251 ft 399 kts 180°
2026-05-01 11:43 47.85510 11.94471 14407 ft 408 kts 178°
2026-05-01 11:43 47.82650 11.94483 14635 ft 414 kts 176°
2026-05-01 11:44 47.76860 11.94557 15364 ft 418 kts 177°
2026-05-01 11:44 47.73941 11.94557 15708 ft 421 kts 177°
2026-05-01 11:44 47.70998 11.94533 16080 ft 423 kts 178°
2026-05-01 11:44 47.68044 11.94490 16474 ft 425 kts 178°
2026-05-01 11:45 47.65070 11.94436 16870 ft 427 kts 178°
2026-05-01 11:45 47.62090 11.94379 17202 ft 430 kts 178°
2026-05-01 11:45 47.59130 11.94320 17598 ft 432 kts 178°
2026-05-01 11:45 47.56117 11.94265 18000 ft 434 kts 178°
2026-05-01 11:46 47.53070 11.94216 18275 ft 438 kts 178°
2026-05-01 11:46 47.50017 11.94164 18604 ft 440 kts 178°
2026-05-01 11:46 47.46941 11.94112 18912 ft 442 kts 178°
2026-05-01 11:46 47.43850 11.93979 19174 ft 446 kts 182°
2026-05-01 11:47 47.40747 11.93542 19499 ft 449 kts 184°
2026-05-01 11:47 47.37630 11.92994 19810 ft 452 kts 185°
2026-05-01 11:47 47.34502 11.92385 20093 ft 455 kts 185°
2026-05-01 11:47 47.31363 11.91748 20413 ft 456 kts 185°
2026-05-01 11:48 47.28218 11.91103 20702 ft 458 kts 185°
2026-05-01 11:48 47.25051 11.90452 21021 ft 460 kts 186°
2026-05-01 11:48 47.21915 11.89791 21271 ft 463 kts 186°
2026-05-01 11:48 47.18714 11.89142 21544 ft 465 kts 185°
2026-05-01 11:49 47.15496 11.88508 21850 ft 468 kts 185°
2026-05-01 11:49 47.12251 11.87876 22171 ft 470 kts 185°
2026-05-01 11:49 47.09000 11.87242 22496 ft 472 kts 185°
2026-05-01 11:49 47.05729 11.86600 22780 ft 475 kts 186°
2026-05-01 11:50 47.02450 11.85956 23088 ft 477 kts 185°
2026-05-01 11:50 46.99161 11.85254 23339 ft 480 kts 188°
2026-05-01 11:50 46.95860 11.84295 23635 ft 483 kts 191°
2026-05-01 11:50 46.92580 11.83188 23925 ft 486 kts 192°
2026-05-01 11:51 46.89279 11.82041 24155 ft 487 kts 191°
2026-05-01 11:51 46.85968 11.80908 24402 ft 489 kts 191°
2026-05-01 11:51 46.82635 11.79790 24526 ft 492 kts 191°
2026-05-01 11:51 46.79335 11.78712 24853 ft 492 kts 191°
2026-05-01 11:52 46.75985 11.77640 25088 ft 494 kts 190°
2026-05-01 11:52 46.72607 11.76567 25245 ft 498 kts 191°
2026-05-01 11:52 46.69216 11.75476 25518 ft 499 kts 190°
2026-05-01 11:52 46.65822 11.74386 25761 ft 500 kts 192°
2026-05-01 11:53 46.62490 11.72864 25993 ft 504 kts 201°
2026-05-01 11:53 46.59339 11.70626 26262 ft 506 kts 211°
2026-05-01 11:53 46.56425 11.67762 26513 ft 507 kts 216°
2026-05-01 11:53 46.53596 11.64651 26732 ft 510 kts 218°
2026-05-01 11:54 46.50818 11.61428 26988 ft 512 kts 219°
2026-05-01 11:54 46.48052 11.58155 27247 ft 514 kts 219°
2026-05-01 11:54 46.45278 11.54866 27525 ft 515 kts 219°
2026-05-01 11:54 46.42492 11.51583 27752 ft 517 kts 219°
2026-05-01 11:55 46.39679 11.48297 27970 ft 520 kts 219°
2026-05-01 11:55 46.36854 11.45018 28243 ft 522 kts 219°
2026-05-01 11:55 46.34011 11.41735 28462 ft 524 kts 219°
2026-05-01 11:55 46.31155 11.38447 28705 ft 525 kts 219°
2026-05-01 11:56 46.28292 11.35158 28910 ft 527 kts 219°
2026-05-01 11:56 46.25417 11.31861 29070 ft 529 kts 219°
2026-05-01 11:56 46.22532 11.28560 29295 ft 530 kts 219°
2026-05-01 11:56 46.19634 11.25244 29490 ft 532 kts 219°
2026-05-01 11:57 46.16730 11.21924 29791 ft 532 kts 219°
2026-05-01 11:57 46.13833 11.18616 30140 ft 530 kts 219°
2026-05-01 11:57 46.10984 11.15367 30501 ft 528 kts 219°
2026-05-01 11:57 46.08099 11.12080 30749 ft 528 kts 219°
2026-05-01 11:58 46.05217 11.08803 30956 ft 529 kts 219°
2026-05-01 11:58 46.02326 11.05520 31205 ft 528 kts 219°
2026-05-01 11:58 45.96556 10.98970 31714 ft 527 kts 219°
2026-05-01 11:59 45.93671 10.95709 31961 ft 527 kts 219°
2026-05-01 11:59 45.90792 10.92461 32170 ft 527 kts 218°
2026-05-01 11:59 45.87906 10.89209 32408 ft 527 kts 218°
2026-05-01 12:00 45.82126 10.82708 32848 ft 527 kts 218°
2026-05-01 12:00 45.79222 10.79515 33065 ft 527 kts 216°
2026-05-01 12:00 45.73257 10.73506 33449 ft 527 kts 214°
2026-05-01 12:01 45.70227 10.70540 33709 ft 527 kts 214°
2026-05-01 12:01 45.67201 10.67571 33930 ft 526 kts 214°
2026-05-01 12:01 45.64194 10.64602 34136 ft 526 kts 214°
2026-05-01 12:01 45.61191 10.61619 34326 ft 526 kts 214°
2026-05-01 12:02 45.58192 10.58627 34535 ft 525 kts 215°
2026-05-01 12:02 45.55211 10.55649 34876 ft 519 kts 215°
2026-05-01 12:02 45.52265 10.52706 35246 ft 515 kts 215°
2026-05-01 12:02 45.49330 10.49776 35366 ft 516 kts 215°
2026-05-01 12:03 45.46376 10.46832 35370 ft 520 kts 215°
2026-05-01 12:03 45.40421 10.40912 35373 ft 521 kts 215°
2026-05-01 12:04 45.34477 10.35021 35374 ft 521 kts 215°
2026-05-01 12:04 45.28521 10.29134 35370 ft 521 kts 215°
2026-05-01 12:05 45.22598 10.23294 35366 ft 521 kts 215°
2026-05-01 12:05 45.13653 10.14503 35356 ft 521 kts 215°
2026-05-01 12:06 45.07700 10.08672 35355 ft 520 kts 215°
2026-05-01 12:06 45.01735 10.02844 35352 ft 520 kts 215°
2026-05-01 12:07 44.95774 9.97035 35366 ft 520 kts 215°
2026-05-01 12:07 44.89838 9.91268 35369 ft 516 kts 216°
2026-05-01 12:08 44.83931 9.85540 35371 ft 514 kts 215°
2026-05-01 12:08 44.78032 9.79834 35368 ft 514 kts 215°
2026-05-01 12:09 44.72132 9.74144 35367 ft 514 kts 216°
2026-05-01 12:09 44.66234 9.68467 35349 ft 513 kts 216°
2026-05-01 12:10 44.57418 9.60011 35334 ft 513 kts 216°
2026-05-01 12:11 44.48559 9.51546 35328 ft 514 kts 216°
2026-05-01 12:11 44.42643 9.45909 35299 ft 514 kts 216°
2026-05-01 12:12 44.36749 9.40309 35320 ft 510 kts 216°
2026-05-01 12:12 44.31872 9.35688 35320 ft 509 kts 216°
2026-05-01 12:13 44.26010 9.30142 35314 ft 509 kts 216°
2026-05-01 12:13 44.20154 9.24614 35314 ft 509 kts 216°
2026-05-01 12:14 44.14289 9.19091 35317 ft 509 kts 216°
2026-05-01 12:14 44.08413 9.13572 35316 ft 509 kts 216°
2026-05-01 12:15 44.02535 9.08067 35303 ft 508 kts 216°
2026-05-01 12:15 43.96692 9.02609 35320 ft 504 kts 216°
2026-05-01 12:16 43.90880 8.97190 35322 ft 503 kts 216°
2026-05-01 12:16 43.85070 8.91786 35324 ft 503 kts 216°
2026-05-01 12:17 43.79256 8.86390 35322 ft 503 kts 216°
2026-05-01 12:17 43.73462 8.81027 35322 ft 503 kts 216°
2026-05-01 12:18 43.67613 8.75696 35323 ft 505 kts 212°
2026-05-01 12:18 43.61098 8.72000 35325 ft 510 kts 194°
2026-05-01 12:19 43.54041 8.71112 35330 ft 510 kts 181°
2026-05-01 12:19 43.46963 8.70497 35321 ft 509 kts 192°
2026-05-01 12:20 43.40287 8.67454 35316 ft 506 kts 205°